Flag for Belgium Weather past 2 weeks in Mons, Belgium

Now
46 °F

Broken clouds.


Feels Like: 43 °F
Forecast: 33 / 48 °F
Wind: 7 mph from West

Location: Chievres

Current Time: Mar 5, 2015 at 1:45:16 PM

Latest Report: Mar 5, 2015 at 12:25 PM


Visibility: N/A

Pressure: 30.72 "Hg

Humidity: 76%

Dew point: 39 °F

Location of MonsLocation

Historic Weather in Mons — Graph

°F

Mons temperature yesterday

Maximum temperature yesterday: 46 °F (at 1:25 PM)
Minimum temperature yesterday: 34 °F (at 2:25 AM)
Average temperature yesterday: 39 °F

Past Weeks' High & Low Weather Summary

 TemperatureHumidityPressure
High50 °F (Feb 23, 1:25 PM)100% (Feb 18, 12:25 PM)30.72 "Hg (Feb 18, 12:25 PM)
Low30 °F (Feb 19, 4:25 AM)53% (Mar 2, 5:25 PM)29.36 "Hg (Feb 23, 1:51 PM)
Average41 °F84%29.92 "Hg
* Reported Feb 18 12:25 PM — Mar 5 12:25 PM, Mons, Weather by CustomWeather, © 2015

Note: Actual official high and low records may vary slightly from our data, if they occured in-between our weather recording intervals... More about our weather records

Advertising

Mons weather history for previous 24 hours

 ConditionsComfort  
Time TempWeatherWind HumidityBarometerVisibility
12:25 PM
Thu, Mar 5
46 °FBroken clouds.7 mph76%30.72 "HgN/A
11:25 AM45 °FQuite cool.8 mph81%30.72 "HgN/A
10:25 AM39 °FChilly.3 mph93%30.72 "Hg6 mi
10:03 AM39 °FChilly.3 mph87%30.72 "HgN/A
9:25 AM36 °FChilly.3 mph93%30.72 "Hg4 mi
8:49 AM34 °FChilly.5 mph93%30.72 "Hg4 mi
8:25 AM32 °FChilly.6 mph93%30.72 "Hg2 mi
8:03 AM32 °FChilly.6 mph93%30.69 "Hg4 mi
7:25 AM30 °FChilly.3 mph93%30.66 "HgN/A
6:25 AM32 °FChilly.6 mph93%30.66 "HgN/A
5:25 AM30 °FChilly.2 mph100%30.63 "HgN/A
4:25 AM32 °FChilly.5 mph93%30.63 "HgN/A
2:25 AM34 °FChilly.3 mph93%30.63 "HgN/A
1:25 AM34 °FChilly.2 mph93%30.63 "HgN/A
12:25 AM36 °FChilly.5 mph87%30.60 "HgN/A
11:25 PM
Wed, Mar 4
36 °FChilly.7 mph87%30.57 "HgN/A
9:25 PM37 °FPassing clouds.7 mph87%30.54 "HgN/A
8:25 PM39 °FPassing clouds.6 mph81%30.54 "HgN/A
7:25 PM39 °FPassing clouds.8 mph81%30.48 "HgN/A
6:25 PM41 °FPassing clouds.8 mph76%30.45 "HgN/A
5:25 PM45 °FScattered clouds.13 mph66%30.42 "HgN/A
4:25 PM45 °FPartly sunny.13 mph66%30.42 "HgN/A
3:25 PM45 °FPartly sunny.14 mph66%30.39 "HgN/A
2:25 PM45 °FPartly sunny.15 mph66%30.39 "HgN/A
1:25 PM46 °FScattered clouds.18 mph66%30.36 "HgN/A
Weather by CustomWeather, © 2015

See weather overviewHow to use our weather pages